Location: Chiroubles
(46.1812°N, 4.6660°E)
Time: 03:37:14
(UTC+00:00)

Cosmos 1980 Rocket - Pass Details

Date: 15 August 2020
Orbit: 830 x 849 km, 71.0° (Epoch: 27 September)

Event Time Altitude Azimuth Distance (km) Brightness Sun altitude
Rises 20:30:23 0° 325° (NW) 3,415 6.9 -15.8°
Reaches altitude 10° 20:33:03 10° 316° (NW) 2,472 6.0 -16.1°
Maximum altitude 20:38:00 32° 255° (WSW) 1,407 3.7 -16.8°
Drops below altitude 10° 20:42:55 10° 194° (SSW) 2,445 4.3 -17.4°
Enters shadow 20:43:34 - 191° (S) 2,667 4.5 -17.5°
